Regional Weather Roundup
Issued by NWS

Home | Current Version | Previous Version | Text Only | Print | Product List | Glossary Off
Versions: 1 2 3 4 5 6 7 8 9 10 11 12 13 14 15 16 17 18 19 20 21 22 23 24 25 26 27 28 29 30 31 32 33 34 35 36 37 38 39 40 41 42 43 44 45 46 47 48 49 50

000
ASUS45 KBOI 290610
RWRID

IDAHO REGIONAL WEATHER ROUNDUP
NATIONAL WEATHER SERVICE BOISE ID
1200 AM MDT SAT AUG 29 2015

NOTE: "FAIR" INDICATES FEW OR NO CLOUDS BELOW 12000 FEET
WITH NO SIGNIFICANT WEATHER AND/OR OBSTRUCTIONS TO VISIBILITY

IDZ012-014-290700-
SOUTHWEST IDAHO


CITY           SKY/WX    TMP DP  RH WIND       PRES   REMARKS
BOISE          CLOUDY    84  39  20 S7        29.84F
CALDWELL         N/A     73  46  38 S5        29.84S
MOUNTAIN HOME  CLOUDY    75  42  29 S8        29.89F
$$

IDZ016-017-290700-
SOUTHCENTRAL IDAHO


CITY           SKY/WX    TMP DP  RH WIND       PRES   REMARKS
JEROME         MOCLDY    74  44  34 S7        30.00R
TWIN FALLS     MOCLDY    74  39  28 SW5       30.00S
$$

IDZ019>023-290700-
SOUTHEAST IDAHO


CITY           SKY/WX    TMP DP  RH WIND       PRES   REMARKS
IDAHO FALLS    MOCLDY    60  51  72 N3        30.08F
POCATELLO      MOCLDY    69  41  36 VRB3      30.05F
REXBURG        MOCLDY    64  47  53 NW3       30.09F
$$

IDZ006-010-011-018-031-032-290700-
CENTRAL IDAHO MOUNTAINS


CITY           SKY/WX    TMP DP  RH WIND       PRES   REMARKS
MCCALL         CLOUDY    62  47  57 CALM      30.02F
HAILEY         MOCLDY    64  45  48 NW6       30.11S
STANLEY          N/A     56  36  47 S5        30.20R
SALMON         MOCLDY    68  46  45 CALM      30.01F
CHALLIS        PTCLDY    69  42  37 N5        30.07S
$$

IDZ002-004-006-007-026-290700-
NORTHERN IDAHO


CITY           SKY/WX    TMP DP  RH WIND       PRES   REMARKS
LEWISTON       CLOUDY    76  44  32 SE10      29.79F
LOWELL           N/A     65  54  67 CALM      29.88F
COEUR D`ALENE  MOCLDY    64  43  45 NE3       29.88F
MULLAN PASS    MOCLDY    58  39  49 S5        30.10F HAZE
$$


USA.gov is the U.S. government's official web portal to all federal, state and local government web resources and services.